Miscellaneous Local Product
Issued by NWS North Platte, NE

Home | Current Version | Previous Version | Graphics & Text | Print | Product List | Glossary On
Versions: 1 2 3 4 5 6 7 8 9 10 11 12 13 14 15 16 17 18 19 20 21 22 23 24 25 26 27 28 29 30 31 32 33 34 35 36 37 38 39 40 41 42 43 44 45 46 47 48 49 50
036
AXUS43 KLBF 121910
MISLBF


WESTERN AND NORTH CENTRAL NEBRASKA HOURLY WEATHER ROUNDUP
NATIONAL WEATHER SERVICE NORTH PLATTE NE
100 PM CST FRI FEB 12 2016

NOTE: "FAIR" INDICATES FEW OR NO CLOUDS BELOW 12,000 FEET WITH NO
SIGNIFICANT WEATHER AND/OR OBSTRUCTIONS TO VISIBILITY.

NOTE: STATIONS NOT REPORTING VARIABLES SUCH AS SKY/WEATHER OR
PRESSURE ARE PROVIDED BY THE NEBRASKA DEPARTMENT OF
ROADS...RAWS...AND APRS NETWORKS...AND ARE NOT UNDER
NATIONAL WEATHER SERVICE QUALITY CONTROL.

...OBSERVATIONS IN AND NEAR THE EASTERN PANHANDLE OF NEBRASKA...

CITY           SKY/WX    TMP DP  RH WIND       PRES   REMARKS
PINE RIDGE     CLOUDY    32  26  78 E5        30.39S WCI  27
CHADRON        CLOUDY    36  27  69 E7        30.38F WCI  30
ALLIANCE       CLOUDY    32  29  88 SE6       30.36F WCI  26
SIDNEY         CLOUDY    34  30  85 E12       30.36S WCI  25
CRESCENT LAKE    N/A     33  29  85 E3          N/A
BIG SPRINGS      N/A     34  33  96 E7          N/A  WCI  28
$$

...OBSERVATIONS IN NORTH CENTRAL NEBRASKA...

CITY           SKY/WX    TMP DP  RH WIND       PRES   REMARKS
VALENTINE      CLOUDY    25  14  63 NE6       30.47S WCI  18
THEDFORD       CLOUDY    30  26  84 N8        30.44S WCI  22
AINSWORTH      CLOUDY    25  19  79 N6        30.46F WCI  18
O`NEILL        CLOUDY    22  15  77 N10       30.51S WCI  11
ORD            CLOUDY    25  19  78 N12       30.48F WCI  14
BROKEN BOW     CLOUDY    29  24  82 N7        30.44F WCI  22
VALENTINE NWR    N/A     24  21  88 NE6         N/A  WCI  17
BUTTE            N/A     18  15  86 NE12        N/A  WCI   6
HALSEY           N/A     29  23  77 N6          N/A  WCI  23
CHAMBERS         N/A     27  13  56 N5G12       N/A  WCI  22
EWING            N/A     22  16  77 N6          N/A  WCI  15
$$

...OBSERVATIONS IN SOUTHWEST NEBRASKA AND FAR NORTHEAST COLORADO...

CITY           SKY/WX    TMP DP  RH WIND       PRES   REMARKS
WRAY             N/A     39  32  76 E13       30.38  WCI  31
HOLYOKE        CLOUDY    37  34  87 E9        30.38F WCI  31
IMPERIAL       CLOUDY    34  31  88 E8        30.40F WCI  27
OGALLALA       CLOUDY    35  30  83 NE5       30.41R WCI  31
NORTH PLATTE   CLOUDY    36  27  69 NE8       30.42S WCI  30
MCCOOK         CLOUDY    34  30  85 E5        30.43F WCI  30
LEXINGTON      CLOUDY    35  28  78 NE9       30.43F WCI  27
PAXTON           N/A     35  33  91 N3          N/A
STAPLETON        N/A     31  27  85 E3          N/A
GOTHENBURG       N/A     35  27  71 N6          N/A  WCI  30
CALLAWAY         N/A     30  27  90 NE9         N/A  WCI  22
$$

...OBSERVATIONS IN CENTRAL LINCOLN COUNTY AREA...

CITY           SKY/WX    TMP DP  RH WIND       PRES   REMARKS
N.P. AIRPORT   CLOUDY    36  27  69 NE8       30.42S WCI  30
N.P. DOWNTOWN    N/A     35  29  79 NE5G12      N/A  WCI  31
N.P. SOUTHEAST   N/A     35  28  76 NE3         N/A
N.P. HILLCREST   N/A     34  29  82 NE8         N/A  WCI  27
$$

...SOME OBSERVATIONS FROM AROUND THE REGION...

CITY           SKY/WX    TMP DP  RH WIND       PRES   REMARKS
DENVER         MOSUNNY   50  28  42 N6        30.29F
LARAMIE        CLOUDY    46  28  49 NE6       30.29F
CHEYENNE       CLOUDY    48  26  42 S7        30.30F
SCOTTSBLUFF    CLOUDY    36  29  75 E10       30.37S WCI  28
RAPID CITY     FOG       27  26  96 SE8       30.40F VSB 1/4 WCI  19
BISMARCK       MOSUNNY   13   1  59 NE5       30.60S WCI   5
PIERRE         CLOUDY    22  12  65 NE9       30.53F WCI  12
WINNER         CLOUDY    23  12  62 N6        30.52R WCI  16
SIOUX FALLS    MOSUNNY   11   0  61 N20       30.54R WCI  -7
OMAHA          MOSUNNY   25  13  60 N20       30.52R WCI  11
GRAND ISLAND   FOG       23  21  92 NE16      30.50S VSB 3/4 WCI  10
KANSAS CITY    MOSUNNY   34  16  47 N14G22    30.43S WCI  25
WICHITA        CLOUDY    40  26  57 N14       30.44S WCI  32
OKLAHOMA CITY  MOSUNNY   57  34  41 N13       30.36S
LIBERAL        SUNNY     55  34  44 E8        30.38S
HAYS           CLOUDY    34  21  60 NE13      30.46F WCI  25
GOODLAND       CLOUDY    41  33  73 E15       30.38S
$$




USA.gov is the U.S. government's official web portal to all federal, state and local government web resources and services.